Home > Weather > Podgorica > Past weeks

Flag for Montenegro Weather for the Past 2 Weeks in Podgorica, Montenegro

Now
45 °F

Light rain. Mostly cloudy.


Feels Like: 45 °F
Forecast: 45 / 55 °F
Wind: 2 mph from South

Location: Podgorica Titograd

Current Time: Feb 12, 2016 at 7:44:36 PM

Latest Report: Feb 12, 2016 at 7:00 PM


Visibility: 5 mi

Pressure: 29.77 "Hg

Humidity: 93%

Dew point: 43 °F

Location of PodgoricaLocation

Historic Weather in Podgorica — Graph

°F

Podgorica Temperature Yesterday

Maximum temperature yesterday: 45 °F (at 10:30 AM)
Minimum temperature yesterday: 37 °F (at 4:30 AM)
Average temperature yesterday: 40 °F

High & Low Weather Summary for the Past Weeks

 TemperatureHumidityPressure
High66 °F (Feb 2, 3:00 PM)100% (Jan 30, 1:30 AM)30.48 "Hg (Jan 30, 1:30 AM)
Low30 °F (Feb 7, 3:30 AM)26% (Feb 6, 2:00 PM)29.45 "Hg (Feb 10, 4:30 PM)
Average47 °F79%30.15 "Hg
* Reported Jan 28 6:00 PM — Feb 12 6:30 PM, Podgorica, Weather by CustomWeather, © 2016

Note: Actual official high and low records may vary slightly from our data, if they occured in-between our weather recording intervals... More about our weather records

Advertising

Podgorica Weather History for the Previous 24 Hours

 ConditionsComfort  
Time TempWeatherWind HumidityBarometerVisibility
6:30 PM
Fri, Feb 12
45 °FLight rain. Mostly cloudy.2 mph93%29.77 "Hg5 mi
6:00 PM45 °FLight rain. Mostly cloudy.3 mph93%29.80 "HgN/A
5:30 PM45 °FLight rain. Mostly cloudy.2 mph93%29.80 "HgN/A
5:00 PM45 °FLight rain. More clouds than sun.1 mph93%29.80 "HgN/A
4:30 PM46 °FLight rain. More clouds than sun.2 mph87%29.80 "HgN/A
4:00 PM46 °FLight rain. More clouds than sun.2 mph87%29.83 "HgN/A
3:30 PM46 °FLight rain. More clouds than sun.5 mph87%29.83 "HgN/A
3:00 PM46 °FLight rain. Mostly cloudy.5 mph93%29.83 "Hg4 mi
2:30 PM46 °FRain. Mostly cloudy.5 mph93%29.83 "Hg4 mi
2:00 PM46 °FRain. More clouds than sun.3 mph93%29.86 "Hg4 mi
1:30 PM46 °FRain. More clouds than sun.2 mph93%29.86 "Hg4 mi
1:00 PM45 °FLight rain. More clouds than sun.5 mph93%29.89 "HgN/A
12:30 PM45 °FLight rain. More clouds than sun.8 mph93%29.89 "Hg5 mi
12:00 PM45 °FLight rain. More clouds than sun.5 mph93%29.89 "HgN/A
11:30 AM45 °FLight rain. More clouds than sun.2 mph87%29.92 "HgN/A
11:00 AM45 °FPartly sunny.1 mph93%29.92 "HgN/A
10:30 AM45 °FPartly sunny.1 mph93%29.92 "HgN/A
10:00 AM43 °FPartly sunny.2 mph100%29.92 "HgN/A
9:30 AM43 °FPartly sunny.2 mph100%29.92 "HgN/A
9:00 AM43 °FPartly sunny.2 mph100%29.92 "Hg5 mi
8:30 AM41 °FFog.1 mph100%29.92 "Hg3 mi
8:00 AM39 °FFog.No wind100%29.92 "Hg1 mi
7:30 AM37 °FSnow. Cloudy.1 mph100%29.92 "Hg1 mi
7:00 AM37 °FFog.2 mph100%29.92 "Hg1 mi
6:30 AM39 °FFog.2 mph100%29.92 "Hg1 mi
6:00 AM39 °FFog.5 mph100%29.92 "Hg2 mi
5:30 AM39 °FFog.5 mph100%29.92 "Hg2 mi
5:00 AM39 °FFog.5 mph100%29.92 "Hg2 mi
4:30 AM39 °FFog.3 mph100%29.92 "Hg2 mi
4:00 AM39 °FFog.2 mph100%29.92 "Hg3 mi
3:30 AM37 °FFog.3 mph100%29.92 "Hg3 mi
3:00 AM39 °FPassing clouds.3 mph100%29.92 "Hg4 mi
2:30 AM39 °FPassing clouds.3 mph100%29.92 "HgN/A
2:00 AM39 °FPassing clouds.2 mph100%29.92 "HgN/A
1:30 AM37 °FPassing clouds.1 mph100%29.92 "HgN/A
1:00 AM39 °FPartly cloudy.2 mph100%29.89 "HgN/A
12:30 AM39 °FPartly cloudy.3 mph100%29.89 "HgN/A
12:00 AM39 °FPartly cloudy.2 mph100%29.89 "HgN/A
11:00 PM
Thu, Feb 11
39 °FPartly cloudy.3 mph100%29.89 "HgN/A
10:30 PM39 °FPartly cloudy.3 mph100%29.89 "HgN/A
10:00 PM39 °FLight rain. Mostly cloudy.2 mph100%29.89 "HgN/A
9:30 PM39 °FLight rain. Mostly cloudy.2 mph100%29.86 "HgN/A
9:00 PM39 °FLight rain. Mostly cloudy.2 mph100%29.86 "HgN/A
8:30 PM39 °FLight rain. Mostly cloudy.3 mph100%29.86 "HgN/A
8:00 PM39 °FLight rain. Mostly cloudy.3 mph100%29.83 "HgN/A
7:30 PM39 °FLight rain. Mostly cloudy.5 mph100%29.83 "HgN/A
7:00 PM39 °FLight rain. Mostly cloudy.5 mph100%29.83 "HgN/A
Weather by CustomWeather, © 2016

See weather overviewHow to use our weather pages